Вернуться в каталог

ALICE

АктивенНаукаLEO
NORAD 39467·PAYLOAD·🇺🇸 United States

Запущен Dec 6, 2013 с Vandenberg Space Force Base

Loading…

Ближайшие Пролёты (ближайшие 24 часа)

TLE

СвежийSource: Space-Track

Эпоха: Sep 14, 2026, 08:05 UTC

1 39467U 13072F   26257.33694453  .00009730  00000-0  43469-3 0  9999
2 39467 120.4628 279.6257 0169805  89.0501 273.0018 15.10251866128731

Отслеживайте ALICE в реальном времени с AllMySat

Download on the App Store